KB3HLL Weather Reports


time (UTC)temp
C
wind
direction
speed
KPH
gust
KPH
rain 1hr
cm
rain 24hr
cm
rain mn
cm
humidity
%
barometer
mb
20260507085618 4 342 4.8 11.3 0.00 0.00 0.00 91 1012.4
20260507085117 4 338 4.8 9.7 0.00 0.00 0.00 91 1012.4
20260507084619 4 351 6.4 9.7 0.00 0.00 0.00 92 1012.3
20260507084118 4 336 4.8 9.7 0.00 0.00 0.00 91 1012.4
20260507083620 5 325 3.2 6.4 0.00 0.00 0.00 92 1012.4
20260507083117 5 331 3.2 4.8 0.00 0.00 0.00 93 1012.5
20260507082617 5 335 4.8 11.3 0.00 0.00 0.00 92 1012.4
20260507082118 5 331 3.2 9.7 0.00 0.00 0.00 92 1012.4
20260507081618 5 335 4.8 6.4 0.00 0.00 0.00 93 1012.4
20260507081118 5 329 3.2 3.2 0.00 0.00 0.00 94 1012.4
20260507080622 5 321 1.6 3.2 0.00 0.00 0.00 95 1012.5
20260507080120 5 327 4.8 12.9 0.00 0.00 0.00 95 1012.5
20260507075618 5 314 4.8 9.7 0.00 0.00 0.00 95 1012.5
20260507075120 5 333 6.4 8.0 0.00 0.00 0.00 97 1012.4
20260507074621 5 328 6.4 9.7 0.00 0.00 0.00 97 1012.5
20260507074120 5 272 1.6 3.2 0.00 0.00 0.00 99 1012.4
20260507073619 5 314 3.2 6.4 0.00 0.00 0.00 98 1012.3
20260507073119 5 326 3.2 9.7 0.00 0.00 0.00 97 1012.4
20260507072618 5 338 3.2 4.8 0.00 0.00 0.00 100 1012.3
20260507072117 5 19 1.6 3.2 0.00 0.00 0.00 99 1011.9
20260507071617 5 303 0.0 0.0 0.00 0.00 0.00 99 1012.1
20260507071117 5 332 1.6 3.2 0.00 0.00 0.00 99 1011.9
20260507070618 5 341 3.2 6.4 0.00 0.00 0.00 99 1012.0
20260507070121 5 301 0.0 1.6 0.00 0.00 0.00 99 1012.1
20260507065617 5 275 1.6 3.2 0.00 0.00 0.00 99 1012.0
20260507065119 5 316 3.2 3.2 0.00 0.00 0.00 100 1012.1
20260507064620 5 277 3.2 4.8 0.00 0.00 0.00 99 1011.8
20260507064118 5 267 3.2 6.4 0.00 0.00 0.00 99 1011.0
20260507063617 5 321 3.2 3.2 0.00 0.00 0.00 99 1010.7
20260507063120 5 317 3.2 4.8 0.00 0.00 0.00 99 1011.1
20260507062622 5 333 3.2 6.4 0.00 0.00 0.00 99 1011.3
20260507062120 5 291 3.2 4.8 0.00 0.00 0.00 99 1011.8
20260507061620 5 310 1.6 4.8 0.00 0.00 0.00 99 1012.1
20260507061120 5 322 3.2 3.2 0.00 0.00 0.00 99 1012.2
20260507060617 5 331 3.2 8.0 0.00 0.00 0.00 99 1012.4
20260507060122 5 322 6.4 9.7 0.00 0.00 0.00 99 1012.6
20260507055618 6 325 3.2 8.0 0.00 0.00 0.00 97 1012.8
20260507055119 6 319 3.2 12.9 0.00 0.00 0.00 96 1012.6
20260507054617 6 326 6.4 11.3 0.00 0.00 0.00 94 1012.7
20260507054118 6 316 4.8 11.3 0.00 0.00 0.00 97 1012.6
20260507053617 6 337 4.8 6.4 0.00 0.00 0.00 97 1012.6
20260507053119 6 321 6.4 14.5 0.00 0.00 0.00 98 1012.5
20260507052619 6 320 3.2 4.8 0.00 0.00 0.00 97 1012.6
20260507052120 6 326 3.2 8.0 0.00 0.00 0.00 97 1012.7
20260507051619 6 332 4.8 9.7 0.00 0.00 0.00 96 1012.6
20260507051119 6 313 6.4 11.3 0.00 0.00 0.00 97 1012.7
20260507050617 6 303 3.2 11.3 0.00 0.00 0.00 98 1012.7
20260507050117 6 320 4.8 6.4 0.00 0.00 0.00 99 1012.4
20260507045618 6 318 3.2 6.4 0.00 0.00 0.00 99 1012.2
20260507045117 6 327 3.2 9.7 0.00 0.00 0.00 99 1012.2
20260507044620 6 324 3.2 4.8 0.00 0.00 0.00 99 1012.0
20260507044117 6 318 4.8 6.4 0.00 0.00 0.00 99 1012.1
20260507043617 6 332 3.2 6.4 0.00 0.00 0.00 99 1011.6
20260507043117 6 344 3.2 3.2 0.00 0.00 0.00 99 1011.4
20260507042620 6 331 4.8 8.0 0.00 0.00 0.00 99 1011.8
20260507042118 6 314 4.8 9.7 0.00 0.00 0.00 99 1011.9
20260507041617 6 329 4.8 8.0 0.00 0.00 0.00 99 1011.8
20260507041118 6 304 6.4 11.3 0.00 0.00 0.00 99 1011.0
20260507040619 6 328 3.2 3.2 0.00 0.00 0.00 99 1009.1
20260507040117 6 315 4.8 6.4 0.00 0.00 0.00 99 1008.7
20260507035617 6 327 3.2 4.8 0.00 0.00 1.04 99 1008.7
20260507035118 6 311 4.8 6.4 0.00 0.00 1.04 99 1008.8
20260507034617 6 311 3.2 9.7 0.00 0.00 1.04 99 1009.1
20260507034119 6 316 3.2 6.4 0.00 0.00 1.04 99 1009.4
20260507033617 6 324 6.4 9.7 0.00 0.00 1.04 99 1009.3
20260507033117 6 316 3.2 4.8 0.00 0.00 1.04 99 1009.2
20260507032618 6 325 3.2 6.4 0.00 0.00 1.04 99 1009.5
20260507032118 6 322 3.2 4.8 0.00 0.00 1.04 99 1009.8
20260507031621 6 312 6.4 12.9 0.00 0.00 1.04 99 1009.6
20260507031119 6 317 3.2 4.8 0.00 0.00 1.04 99 1009.2
20260507030617 6 319 3.2 6.4 0.00 0.00 1.04 99 1009.0
20260507030119 6 319 3.2 6.4 0.00 0.00 1.04 99 1009.0
20260507025617 6 323 4.8 8.0 0.00 0.00 1.04 99 1008.8
20260507025117 6 328 6.4 8.0 0.00 0.00 1.04 99 1009.0
20260507024619 6 323 4.8 6.4 0.00 0.00 1.04 99 1009.2
20260507024118 7 323 4.8 4.8 0.00 0.00 1.04 99 1009.4
20260507023618 7 321 4.8 6.4 0.00 0.00 1.04 99 1009.5
20260507023119 7 326 3.2 6.4 0.00 0.00 1.04 99 1009.5
20260507022619 7 338 6.4 8.0 0.00 0.00 1.04 99 1009.0
20260507022118 7 314 4.8 9.7 0.00 0.00 1.04 99 1009.2
20260507021619 7 323 4.8 8.0 0.00 0.00 1.04 99 1009.4
20260507021120 7 302 6.4 9.7 0.00 0.00 1.04 99 1009.3
20260507020619 7 309 3.2 4.8 0.00 0.00 1.04 99 1009.3
20260507020119 7 328 1.6 3.2 0.00 0.00 1.04 99 1009.3
20260507015617 7 337 1.6 4.8 0.00 0.00 1.04 99 1009.8
20260507015120 7 315 3.2 4.8 0.00 0.00 1.04 99 1009.5
20260507014619 7 314 1.6 1.6 0.00 0.00 1.04 99 1009.5
20260507014117 7 305 3.2 6.4 0.00 0.00 1.04 99 1009.6
20260507013617 7 277 0.0 1.6 0.00 0.00 1.04 99 1009.9
20260507013117 7 300 1.6 3.2 0.00 0.00 1.04 99 1010.0
20260507012617 7 340 4.8 6.4 0.00 0.00 1.04 99 1009.6
20260507012117 7 334 1.6 3.2 0.00 0.00 1.04 99 1010.0
20260507011619 7 337 3.2 4.8 0.00 0.00 1.04 99 1010.4
20260507011119 7 329 4.8 9.7 0.00 0.00 1.04 99 1010.6
20260507010617 7 314 1.6 3.2 0.00 0.00 1.04 99 1010.7
20260507010119 7 338 3.2 6.4 0.00 0.00 1.04 99 1010.6
20260507005620 7 330 4.8 6.4 0.00 0.00 1.04 99 1009.9
20260507005120 7 358 4.8 9.7 0.00 0.00 1.04 99 1009.6
20260507004620 7 334 4.8 8.0 0.00 0.00 1.04 99 1009.9
20260507004118 7 344 6.4 12.9 0.00 0.00 1.04 99 1009.6
20260507003618 7 346 4.8 9.7 0.00 0.00 1.04 99 1009.2
20260507003117 7 349 3.2 6.4 0.00 0.00 1.04 99 1009.1
20260507002617 7 345 6.4 11.3 0.00 0.00 1.04 99 1008.9
20260507002117 7 351 6.4 11.3 0.00 0.00 1.04 99 1008.7
20260507001617 7 325 3.2 6.4 0.00 0.00 1.04 99 1008.6
20260507001118 7 350 6.4 9.7 0.00 0.00 1.04 99 1008.5
20260507000619 7 343 4.8 8.0 0.00 0.00 1.04 99 1008.5
20260507000121 7 340 6.4 8.0 0.00 0.00 1.04 99 1008.4
20260506235620 7 344 8.0 12.9 0.00 0.00 1.04 99 1008.3
20260506235117 7 344 8.0 12.9 0.00 0.00 1.04 99 1008.4
20260506234620 7 344 6.4 9.7 0.00 0.00 1.04 99 1008.4
20260506234120 7 331 8.0 14.5 0.00 0.00 1.04 99 1008.3
20260506233617 7 340 8.0 11.3 0.00 0.00 1.04 99 1007.8
20260506233119 7 343 6.4 8.0 0.00 0.00 1.04 99 1007.6
20260506232618 7 339 8.0 14.5 0.00 0.00 1.04 99 1007.6
20260506232117 7 341 9.7 14.5 0.00 0.00 1.04 99 1007.5
20260506231617 7 339 9.7 14.5 0.00 0.00 1.04 99 1007.5
20260506231118 7 336 11.3 16.1 0.00 0.00 1.04 99 1007.4
20260506230619 7 349 11.3 17.7 0.00 0.00 1.04 99 1007.2
20260506230120 7 340 9.7 14.5 0.00 0.00 1.04 99 1007.3
20260506225621 7 343 8.0 17.7 0.00 0.00 1.04 99 1007.3
20260506225117 7 345 14.5 22.5 0.00 0.00 1.04 99 1006.9
20260506224620 8 339 11.3 19.3 0.00 0.00 1.04 99 1007.0
20260506224118 8 332 6.4 11.3 0.00 0.00 1.04 99 1006.9
20260506223619 8 331 8.0 14.5 0.00 0.00 1.04 99 1007.1
20260506223119 8 323 8.0 12.9 0.00 0.00 1.04 99 1007.2
20260506222617 8 323 6.4 14.5 0.00 0.00 1.04 99 1007.2
20260506222118 8 343 6.4 9.7 0.00 0.00 1.04 99 1007.2
20260506221619 8 336 4.8 9.7 0.00 0.00 1.04 99 1007.2
20260506221119 8 328 4.8 8.0 0.00 0.00 1.04 99 1007.1
20260506220617 8 333 4.8 8.0 0.00 0.00 1.04 99 1007.1
20260506220117 8 323 6.4 9.7 0.00 0.00 1.04 99 1007.0
20260506215620 8 326 9.7 12.9 0.00 0.00 1.04 99 1007.1
20260506215117 8 317 6.4 11.3 0.00 0.00 1.04 99 1007.1
20260506214619 8 321 9.7 17.7 0.00 0.00 1.04 99 1007.0
20260506214119 8 323 9.7 11.3 0.03 0.00 1.04 99 1007.0
20260506213620 8 322 8.0 12.9 0.03 0.00 1.04 99 1007.0
20260506213117 9 335 8.0 16.1 0.03 0.00 1.04 99 1007.1
20260506212618 9 331 4.8 8.0 0.03 0.00 1.04 99 1007.1
20260506212117 9 331 9.7 14.5 0.03 0.00 1.04 99 1006.6
20260506211618 9 336 9.7 17.7 0.03 0.00 1.04 99 1006.5
20260506211117 9 334 6.4 11.3 0.03 0.00 1.04 99 1006.5
20260506210619 9 329 6.4 25.7 0.03 0.00 1.04 99 1006.6
20260506210117 10 318 6.4 9.7 0.03 0.00 1.04 99 1006.3
20260506205617 10 314 9.7 12.9 0.03 0.00 1.04 99 1006.2
20260506205120 10 314 6.4 11.3 0.03 0.00 1.04 99 1006.0
20260506204618 10 319 6.4 12.9 0.00 0.00 1.04 99 1005.9
20260506204117 11 311 6.4 9.7 0.00 0.00 1.04 99 1005.8
20260506203618 11 308 4.8 12.9 0.00 0.00 1.04 99 1005.6
20260506203119 11 342 8.0 17.7 0.00 0.00 1.04 99 1005.6
20260506202619 12 316 8.0 12.9 0.00 0.00 1.04 99 1006.5
20260506202117 13 326 6.4 9.7 0.00 0.00 1.02 100 1007.3
20260506201620 13 303 3.2 6.4 0.00 0.00 1.02 100 1007.5
20260506201122 13 311 4.8 9.7 0.00 0.00 1.02 100 1008.0
20260506200159 13 273 4.8 6.4 0.00 0.00 1.02 100 1008.1
20260506195620 13 300 4.8 9.7 0.00 0.00 1.02 100 1008.0
20260506195119 13 300 4.8 11.3 0.00 0.00 1.02 100 1006.5
20260506194625 12 295 3.2 4.8 0.00 0.00 1.02 100 1006.0
20260506194117 12 305 4.8 8.0 0.00 0.00 1.02 100 1005.8
20260506193620 12 304 3.2 6.4 0.00 0.00 1.02 99 1005.6
20260506193117 12 299 4.8 8.0 0.00 0.00 1.02 99 1005.6
20260506192619 12 283 4.8 8.0 0.00 0.00 1.02 99 1005.4
20260506192117 13 280 3.2 4.8 0.00 0.00 1.02 99 1005.4
20260506191621 13 308 4.8 9.7 0.00 0.00 1.02 99 1005.2
20260506191117 13 308 3.2 3.2 0.00 0.00 1.02 99 1005.3
20260506190619 13 312 3.2 4.8 0.00 0.00 1.02 99 1005.3
20260506190117 13 326 3.2 8.0 0.00 0.00 1.02 99 1005.6
20260506185617 13 277 3.2 6.4 0.00 0.00 1.02 99 1005.6
20260506185117 13 283 3.2 9.7 0.00 0.00 1.02 99 1005.8
20260506184622 13 250 4.8 9.7 0.00 0.00 1.02 99 1005.9
20260506184121 13 303 3.2 6.4 0.00 0.00 1.02 100 1005.7
20260506183621 13 294 3.2 4.8 0.00 0.00 1.02 100 1005.4
20260506183121 13 234 3.2 3.2 0.00 0.00 1.02 100 1005.4
20260506182618 12 261 1.6 3.2 0.00 0.00 1.02 100 1005.4
20260506182118 12 244 3.2 4.8 0.00 0.00 1.02 100 1005.5
20260506181620 12 247 3.2 3.2 0.00 0.00 1.02 100 1005.5
20260506181121 12 284 4.8 6.4 0.00 0.00 1.02 100 1005.6
20260506180620 12 239 3.2 6.4 0.00 0.00 1.02 100 1005.7
20260506180117 12 230 4.8 6.4 0.00 0.00 1.02 100 1005.6
20260506175622 12 208 1.6 3.2 0.00 0.00 1.02 100 1005.6
20260506175117 12 248 1.6 6.4 0.00 0.00 1.02 100 1005.7
20260506174618 12 249 3.2 6.4 0.00 0.00 1.02 100 1005.9
20260506174121 12 233 3.2 4.8 0.00 0.00 1.02 100 1006.2
20260506173617 12 220 3.2 6.4 0.00 0.00 1.02 100 1006.4
20260506173123 12 177 8.0 16.1 0.00 0.00 1.02 100 1006.4
20260506172617 12 202 3.2 6.4 0.00 0.00 1.02 100 1006.4
20260506172122 12 162 9.7 14.5 0.00 0.00 1.02 100 1006.4
20260506171618 12 166 3.2 8.0 0.00 0.00 1.02 100 1006.4
20260506171120 12 180 6.4 11.3 0.00 0.00 1.02 100 1006.4
20260506170617 12 189 6.4 11.3 0.00 0.00 1.02 100 1006.5
20260506170120 12 182 4.8 9.7 0.00 0.00 1.02 100 1006.6
20260506165620 11 167 8.0 11.3 0.00 0.00 1.02 100 1006.6
20260506165121 11 163 6.4 11.3 0.00 0.00 1.02 100 1006.5
20260506164617 11 161 8.0 12.9 0.00 0.00 1.02 100 1006.6
20260506164120 11 166 8.0 12.9 0.00 0.00 1.02 100 1006.6
20260506163619 11 161 6.4 9.7 0.00 0.00 1.02 100 1006.6
20260506163122 11 157 8.0 12.9 0.00 0.00 1.02 100 1006.6
20260506162622 11 162 8.0 11.3 0.00 0.00 1.02 100 1006.7
20260506162118 11 155 11.3 14.5 0.00 0.00 1.02 100 1006.6
20260506161620 11 150 6.4 11.3 0.00 0.00 1.02 100 1006.7
20260506161117 11 146 9.7 12.9 0.00 0.00 1.02 100 1006.6
20260506160620 11 146 9.7 12.9 0.00 0.00 1.02 100 1006.6
20260506160118 11 175 4.8 6.4 0.03 0.00 1.02 100 1006.7
20260506155619 11 149 6.4 11.3 0.03 0.00 1.02 99 1006.8
20260506155120 11 162 6.4 11.3 0.05 0.00 1.02 99 1006.8
20260506154620 11 163 9.7 16.1 0.08 0.00 1.02 99 1006.8
20260506154120 11 161 9.7 14.5 0.08 0.00 1.02 99 1006.7
20260506153619 11 150 8.0 12.9 0.08 0.00 1.02 99 1006.6
20260506153120 11 130 11.3 12.9 0.10 0.00 1.02 99 1006.6
20260506152619 11 146 14.5 14.5 0.10 0.00 1.02 99 1006.4
20260506151638 11 138 11.3 14.5 0.18 0.00 1.04 99 1006.3
20260506151119 11 144 9.7 12.9 0.18 0.00 1.04 99 1006.2
20260506150621 11 145 9.7 12.9 0.20 0.00 1.04 99 1006.4
20260506150120 11 142 12.9 17.7 0.18 0.00 1.04 99 1006.3
20260506145621 11 147 9.7 14.5 0.18 0.00 1.04 99 1006.4
20260506145121 11 140 6.4 14.5 0.15 0.00 1.04 99 1006.4
20260506144620 11 131 9.7 14.5 0.15 0.00 1.02 99 1006.4
20260506144120 11 129 12.9 16.1 0.15 0.00 0.99 99 1006.3
20260506143619 11 139 9.7 12.9 0.15 0.00 0.97 99 1006.4
20260506143120 11 134 9.7 14.5 0.15 0.00 0.97 99 1006.4
20260506142619 11 119 8.0 12.9 0.15 0.00 0.97 99 1006.0
20260506142119 11 156 8.0 14.5 0.13 0.00 0.99 99 1006.0
20260506141621 11 138 8.0 12.9 0.13 0.00 0.97 99 1006.2
20260506141120 11 145 9.7 11.3 0.08 0.00 0.97 99 1006.3
20260506140619 11 131 11.3 14.5 0.08 0.00 0.91 99 1005.9
20260506140120 11 141 12.9 19.3 0.08 0.00 0.94 99 1005.9
20260506135619 11 140 9.7 12.9 0.10 0.00 0.91 99 1006.0
20260506135119 11 150 9.7 14.5 0.10 0.00 0.89 99 1006.2
20260506134620 11 137 11.3 16.1 0.13 0.00 0.86 99 1006.2
20260506134120 11 139 9.7 16.1 0.18 0.00 0.86 99 1006.0
20260506133619 11 142 12.9 19.3 0.18 0.00 0.86 99 1006.0
20260506133120 11 149 9.7 12.9 0.25 0.00 0.86 99 1005.9
20260506132619 11 139 14.5 20.9 0.30 0.00 0.86 99 1005.7
20260506132120 11 134 14.5 20.9 0.30 0.00 0.86 99 1005.6
20260506131620 11 146 12.9 16.1 0.33 0.00 0.86 99 1005.7
20260506131119 11 135 11.3 17.7 0.33 0.00 0.86 99 1005.4
20260506130618 11 133 9.7 16.1 0.33 0.00 0.86 99 1005.3
20260506130122 11 120 11.3 16.1 0.33 0.00 0.84 99 1005.3
20260506125621 11 126 11.3 17.7 0.28 0.00 0.81 99 1005.1
20260506125120 11 140 11.3 17.7 0.28 0.00 0.81 99 1005.1
20260506124621 11 136 11.3 14.5 0.28 0.00 0.79 99 1005.2
20260506124121 11 133 11.3 16.1 0.25 0.00 0.76 99 1005.5
20260506123619 11 138 11.3 17.7 0.25 0.00 0.76 99 1005.6
20260506123119 11 148 11.3 14.5 0.20 0.00 0.71 99 1005.8
20260506122619 11 121 6.4 9.7 0.15 0.00 0.69 99 1005.9
20260506122120 11 147 8.0 9.7 0.13 0.00 0.66 99 1006.2
20260506121619 11 138 6.4 9.7 0.13 0.00 0.64 99 1006.4
20260506121119 11 153 8.0 11.3 0.10 0.00 0.58 99 1006.5
20260506120619 11 141 9.7 14.5 0.13 0.00 0.53 99 1006.9
20260506120122 11 144 9.7 12.9 0.13 0.00 0.51 99 1007.1
20260506115619 11 137 9.7 11.3 0.10 0.00 0.51 99 1007.0
20260506115120 11 139 8.0 9.7 0.15 0.00 0.51 99 1006.4
20260506114618 11 134 8.0 9.7 0.15 0.00 0.51 99 1006.5
20260506114119 11 131 8.0 9.7 0.13 0.00 0.48 99 1006.4
20260506113620 11 129 6.4 8.0 0.13 0.00 0.48 99 1006.4
20260506113120 11 139 6.4 9.7 0.13 0.00 0.46 99 1006.5
20260506112619 12 143 6.4 9.7 0.18 0.00 0.43 99 1007.6
20260506112119 12 144 6.4 6.4 0.18 0.00 0.48 99 1008.2
20260506111617 12 142 6.4 6.4 0.18 0.00 0.48 100 1008.6
20260506111118 12 144 4.8 4.8 0.20 0.00 0.48 100 1008.7
20260506110619 12 148 4.8 4.8 0.18 0.00 0.46 98 1009.0
20260506110120 12 165 3.2 4.8 0.18 0.00 0.43 96 1009.3
20260506105620 12 212 3.2 4.8 0.18 0.00 0.41 95 1009.4
20260506105124 12 190 1.6 3.2 0.15 0.00 0.41 96 1009.2
20260506104619 12 180 4.8 6.4 0.13 0.00 0.41 95 1009.2
20260506104119 12 171 3.2 3.2 0.13 0.00 0.38 96 1009.2
20260506103620 12 254 1.6 3.2 0.13 0.00 0.36 96 1009.2
20260506103119 12 260 0.0 1.6 0.13 0.00 0.33 97 1009.1
20260506102617 12 251 0.0 0.0 0.13 0.00 0.33 97 1009.2
20260506102118 12 255 0.0 1.6 0.10 0.00 0.33 96 1009.5
20260506101620 13 266 0.0 1.6 0.10 0.00 0.30 96 1009.5
20260506101117 13 206 1.6 3.2 0.08 0.00 0.30 94 1009.6
20260506100619 13 258 1.6 3.2 0.10 0.00 0.28 95 1009.5
20260506100118 13 268 0.0 1.6 0.10 0.00 0.25 93 1009.6
20260506095619 13 296 1.6 1.6 0.10 0.00 0.23 93 1009.6
20260506095121 12 309 1.6 3.2 0.13 0.00 0.23 93 1009.5
20260506094619 12 303 1.6 3.2 0.15 0.00 0.23 93 1009.5
20260506094119 12 323 1.6 3.2 0.15 0.00 0.23 95 1009.4
20260506093619 12 318 3.2 4.8 0.13 0.00 0.20 94 1009.5
20260506093120 13 323 3.2 4.8 0.15 0.00 0.20 94 1009.5
20260506092619 13 332 3.2 4.8 0.15 0.00 0.20 92 1009.5
20260506092119 13 330 4.8 8.0 0.15 0.00 0.23 91 1009.6
20260506091619 13 334 4.8 8.0 0.13 0.00 0.20 91 1009.6
20260506091121 13 340 4.8 6.4 0.13 0.00 0.20 90 1009.6
20260506090619 13 343 4.8 4.8 0.13 0.00 0.20 86 1009.6
20260506090119 13 334 3.2 4.8 0.13 0.00 0.20 88 1009.6